#timestamp,LO_Frequency,Hit,StdDev 
1511344815.0,286047000.0,N
1511344815.9,286047000.0,N
1511344835.8,286046999.6,N
1511344855.6,286046994.8,N
1511344875.5,286046995.2,N
1511344895.3,286046997.5,N
1511344915.1,286046999.7,N
1511344935.9,286047004.3,N
1511344955.7,286047005.5,N
1511344975.5,286047001.1,N
1511344995.4,286047000.4,N
1511345015.2,286046998.4,N
1511345035.1,286047001.1,N
1511345036.0,286047001.1,N
1511345055.8,286047007.5,N
1511345075.6,286047004.7,N
1511345095.5,286047006.1,N
1511345115.3,286047003.2,N
1511345135.1,286047000.2,N
1511345155.9,286046998.0,N
1511345175.7,286046994.0,N
1511345195.6,286046989.4,Y
1511345215.4,286046982.6,P
1511345235.2,286046982.2,N
1511345255.1,286046989.8,N
1511345256.0,286046989.8,N
1511345275.8,286046993.0,N
1511345295.6,286046993.4,N
1511345315.5,286046991.3,N
1511345335.3,286046996.3,N
1511345355.2,286046990.1,N
1511345375.9,286046993.4,N
1511345395.7,286046996.2,N
1511345415.6,286046995.5,N
1511345435.4,286046993.7,N
1511345455.2,286046993.1,N
1511345475.1,286046994.0,N
1511345476.0,286046994.0,N
1511345495.8,286046994.4,N
1511345515.7,286046989.0,N
1511345535.5,286046982.9,Y
1511345555.3,286046981.1,P
1511345575.2,286046979.2,P
1511345595.0,286046985.8,N
1511345595.9,286046985.8,N
1511345615.8,286046986.4,Y
1511345635.6,286047001.3,P
1511345655.4,286047002.3,N
1511345675.3,286047007.4,N
1511345695.1,286047002.0,N
1511345715.8,286047001.3,N
1511345735.7,286047003.0,N
1511345755.5,286047008.5,N
1511345775.4,286047009.0,N
1511345795.2,286047010.4,N
1511345815.0,286047009.5,N
1511345815.9,286047009.5,N
1511345835.8,286047006.2,N
1511345855.6,286047005.1,N
1511345875.4,286047006.8,N
1511345895.3,286047007.3,N
1511345915.1,286047008.5,N
1511345935.9,286047009.4,N
1511345955.7,286047009.8,N
1511345975.5,286047009.6,N
1511345995.4,286047009.0,N
1511346015.2,286047005.6,N
1511346035.0,286047006.2,N
1511346035.9,286047006.2,N
1511346055.8,286047010.1,N
1511346075.6,286047004.8,N
1511346095.5,286047004.2,N
1511346115.3,286047004.0,N
1511346135.1,286047003.7,N
1511346155.9,286047007.1,N
1511346175.7,286047005.4,N
1511346195.5,286047000.7,N
1511346215.4,286046999.0,N
1511346235.2,286046992.1,N
1511346255.1,286046995.3,N
1511346256.0,286046995.3,N
1511346275.8,286046999.2,N
1511346295.6,286046996.6,N
1511346315.5,286046998.5,N
1511346335.3,286046999.4,N
1511346355.1,286047000.9,N
1511346375.9,286047002.0,N
1511346395.7,286046997.2,N
1511346415.6,286046997.4,N
1511346435.4,286046991.8,N
1511346455.2,286046995.9,N
1511346475.1,286046994.2,N
1511346476.0,286046994.2,N
1511346495.8,286046994.8,N
1511346515.6,286046992.6,N
1511346535.5,286046992.1,N
1511346555.3,286046993.4,N
1511346575.2,286046992.5,N
1511346595.9,286046986.0,N
1511346615.7,286046980.0,Y
1511346635.6,286046979.5,P
1511346655.4,286046982.9,N
1511346675.3,286046982.2,N
1511346695.1,286046989.6,N
1511346696.0,286046989.6,N
1511346715.8,286046988.5,N
1511346735.7,286046992.9,N
1511346755.5,286047000.7,N
1511346775.3,286046999.7,N
1511346795.2,286046999.0,N
1511346815.0,286047002.8,N
1511346815.9,286047002.8,N
1511346835.8,286047001.6,N
1511346855.6,286047000.3,N
1511346875.4,286047001.5,N
1511346895.3,286047002.1,N
1511346915.1,286047004.4,N
1511346935.8,286046999.0,N
1511346955.7,286046993.5,N
1511346975.5,286046995.5,N
1511346995.4,286046996.2,N
1511347015.2,286046996.5,N
1511347035.0,286047002.6,N
1511347035.9,286047002.6,N
1511347055.8,286046995.1,N
1511347075.6,286046999.0,N
1511347095.4,286047001.9,N
1511347115.3,286047004.0,N
1511347135.1,286047003.8,N
1511347155.9,286047005.6,N
1511347175.7,286047003.4,N
1511347195.5,286046999.7,N
1511347215.4,286047004.1,N
1511347235.2,286046998.8,N
1511347255.0,286046996.9,N
1511347255.9,286046996.9,N
1511347275.8,286047000.8,N
1511347295.6,286046991.7,N
1511347315.5,286046996.6,N
1511347335.3,286046994.9,N
1511347355.1,286046992.2,N
1511347375.9,286046990.8,N
1511347395.7,286046992.8,N
1511347415.5,286046995.8,N
1511347435.4,286046999.8,N
1511347455.2,286047000.9,N
1511347475.1,286046998.8,N
1511347476.0,286046998.8,N
1511347495.8,286046996.5,N
1511347515.6,286046996.0,N
1511347535.5,286046998.1,N
1511347555.3,286046997.3,N
1511347575.1,286046995.3,N
1511347595.9,286046998.1,N
1511347615.7,286047001.0,N
1511347635.6,286047001.4,N
1511347655.4,286047001.7,N
1511347675.2,286047001.6,N
1511347695.1,286046998.5,N
1511347696.0,286046998.5,N
1511347715.8,286047004.2,N
1511347735.7,286047003.9,N
1511347755.5,286047003.6,N
1511347775.3,286047003.4,N
1511347795.2,286047003.8,N
1511347815.9,286047005.9,N
1511347835.7,286047000.7,N
1511347855.6,286046995.3,N
1511347875.4,286046992.4,N
1511347895.3,286046990.1,N
1511347915.1,286046993.9,N
1511347916.0,286046993.9,N
1511347935.8,286046997.4,N
1511347955.7,286046993.5,N
1511347975.5,286046997.6,N
1511347995.3,286046994.6,N
1511348015.2,286046987.5,Y
1511348035.0,286046983.0,P
1511348035.9,286046983.0,N
1511348055.8,286046981.3,N
1511348075.6,286046983.2,N
1511348095.4,286046977.7,Y
1511348115.3,286046994.2,P
1511348135.1,286046995.8,N
1511348155.9,286046995.7,N
1511348175.7,286046991.9,N
1511348195.5,286046991.6,N
1511348215.4,286046989.4,Y
1511348235.2,286046993.9,P
1511348255.0,286046991.6,P
1511348255.9,286046991.6,P
1511348275.8,286046984.7,Y
1511348295.6,286046984.2,P
1511348315.5,286046977.8,P
1511348335.3,286046984.8,N
1511348355.1,286046994.3,N
1511348375.9,286047001.6,N
1511348395.7,286047000.9,N
